When you browse on this site, cookies collect data to enhance your experience and personalize the content and advertising you see.
Visit our Privacy Policy to learn more. By continuing to use the site, you agree to this use of cookies and data.
  • In United Kingdom
  • List of Countries
  • For 7 days
  • Water Temperature
  • Satellite Maps
  • Weather Map
  • Weather Widgets
  • user-avatar
    Login

    Hourly Weather Moncalieri

    Today, 21 March, Thursday

    Time Temperature Precipitation Wind Pressure Humidity
    00:00 +8°C° 0 mm 1 mps 753 mmHg 47%
    01:00 +8°C° 0 mm 1 mps 752 mmHg 53%
    02:00 +7°C° 0 mm 1 mps 752 mmHg 54%
    03:00 +7°C° 0 mm 1 mps 753 mmHg 55%
    04:00 +7°C° 0 mm 1 mps 753 mmHg 56%
    05:00 +7°C° 0 mm 1 mps 753 mmHg 57%
    06:00 +7°C° 0 mm 1 mps 753 mmHg 57%
    07:00 +6°C° 0 mm 1 mps 753 mmHg 57%
    08:00 +8°C° 0 mm 1 mps 753 mmHg 51%
    09:00 +10°C° 0 mm 1 mps 753 mmHg 45%
    10:00 +12°C° 0 mm 1 mps 753 mmHg 40%
    11:00 +13°C° 0 mm 1 mps 752 mmHg 36%
    12:00 +15°C° 0 mm 1 mps 752 mmHg 33%
    13:00 +16°C° 0 mm 1 mps 752 mmHg 29%
    14:00 +18°C° 0 mm 1 mps 752 mmHg 27%
    15:00 +18°C° 0 mm 1 mps 751 mmHg 26%
    16:00 +18°C° 0 mm 1 mps 751 mmHg 24%
    17:00 +16°C° 0 mm 1 mps 751 mmHg 29%
    18:00 +14°C° 0 mm 1 mps 751 mmHg 33%
    19:00 +12°C° 0 mm 1 mps 751 mmHg 38%
    20:00 +11°C° 0 mm 1 mps 752 mmHg 38%
    21:00 +11°C° 0 mm 1 mps 752 mmHg 38%
    22:00 +10°C° 0 mm 1 mps 753 mmHg 38%
    23:00 +9°C° 0 mm 1 mps 753 mmHg 37%

    Tomorrow, 22 March, Friday

    Time Temperature Precipitation Wind Pressure Humidity
    00:00 +9°C° 0 mm 1 mps 753 mmHg 36%
    01:00 +9°C° 0 mm 1 mps 753 mmHg 35%
    02:00 +8°C° 0 mm 1 mps 752 mmHg 34%
    03:00 +8°C° 0 mm 1 mps 752 mmHg 33%
    04:00 +8°C° 0 mm 1 mps 752 mmHg 32%
    05:00 +8°C° 0 mm 1 mps 752 mmHg 31%
    06:00 +8°C° 0 mm 1 mps 752 mmHg 30%
    07:00 +7°C° 0 mm 1 mps 752 mmHg 29%
    08:00 +10°C° 0 mm 1 mps 752 mmHg 26%
    09:00 +13°C° 0 mm 1 mps 752 mmHg 23%
    10:00 +15°C° 0 mm 1 mps 751 mmHg 19%
    11:00 +18°C° 0 mm 1 mps 751 mmHg 17%
    12:00 +19°C° 0 mm 1 mps 751 mmHg 16%
    13:00 +21°C° 0 mm 1 mps 751 mmHg 14%
    14:00 +21°C° 0 mm 1 mps 750 mmHg 14%
    15:00 +21°C° 0 mm 1 mps 750 mmHg 14%
    16:00 +22°C° 0 mm 1 mps 750 mmHg 14%
    17:00 +20°C° 0 mm 1 mps 750 mmHg 18%
    18:00 +16°C° 0 mm 1 mps 750 mmHg 22%
    19:00 +14°C° 0 mm 1 mps 750 mmHg 26%
    20:00 +14°C° 0 mm 1 mps 750 mmHg 26%
    21:00 +13°C° 0 mm 1 mps 750 mmHg 26%
    22:00 +12°C° 0 mm 1 mps 751 mmHg 26%
    23:00 +12°C° 0 mm 1 mps 750 mmHg 25%

    Day after tomorrow, 23 March, Saturday

    Time Temperature Precipitation Wind Pressure Humidity
    00:00 +11°C° 0 mm 1 mps 750 mmHg 25%
    01:00 +11°C° 0 mm 1 mps 750 mmHg 24%
    02:00 +10°C° 0 mm 1 mps 750 mmHg 24%
    03:00 +10°C° 0 mm 1 mps 750 mmHg 24%
    04:00 +10°C° 0 mm 1 mps 749 mmHg 24%
    05:00 +10°C° 0 mm 1 mps 749 mmHg 25%
    06:00 +9°C° 0 mm 1 mps 749 mmHg 26%
    07:00 +9°C° 0 mm 1 mps 749 mmHg 27%
    08:00 +12°C° 0 mm 1 mps 749 mmHg 25%
    09:00 +14°C° 0 mm 1 mps 749 mmHg 23%
    10:00 +18°C° 0 mm 1 mps 749 mmHg 20%
    11:00 +19°C° 0 mm 1 mps 749 mmHg 19%
    12:00 +20°C° 0 mm 1 mps 748 mmHg 18%
    13:00 +22°C° 0 mm 1 mps 748 mmHg 17%
    14:00 +22°C° 0 mm 1 mps 748 mmHg 17%
    15:00 +22°C° 0 mm 1 mps 748 mmHg 18%
    16:00 +22°C° 0 mm 1 mps 747 mmHg 18%
    17:00 +20°C° 0 mm 1 mps 747 mmHg 22%
    18:00 +18°C° 0 mm 1 mps 748 mmHg 26%
    19:00 +15°C° 0 mm 1 mps 748 mmHg 30%
    20:00 +15°C° 0 mm 1 mps 748 mmHg 30%
    21:00 +14°C° 0 mm 1 mps 748 mmHg 31%
    22:00 +13°C° 0 mm 1 mps 749 mmHg 31%
    23:00 +13°C° 0 mm 1 mps 749 mmHg 30%

    24 March, Sunday

    Time Temperature Precipitation Wind Pressure Humidity
    00:00 +12°C° 0 mm 1 mps 749 mmHg 29%
    01:00 +12°C° 0 mm 1 mps 749 mmHg 28%
    02:00 +12°C° 0 mm 1 mps 748 mmHg 28%
    03:00 +11°C° 0 mm 1 mps 748 mmHg 27%
    04:00 +11°C° 0 mm 1 mps 748 mmHg 27%
    05:00 +11°C° 0 mm 1 mps 748 mmHg 28%
    06:00 +11°C° 0 mm 1 mps 748 mmHg 28%
    07:00 +11°C° 0 mm 1 mps 748 mmHg 29%
    08:00 +13°C° 0 mm 1 mps 748 mmHg 27%
    09:00 +15°C° 0 mm 1 mps 748 mmHg 25%
    10:00 +19°C° 0 mm 1 mps 748 mmHg 23%
    11:00 +20°C° 0 mm 1 mps 748 mmHg 22%
    12:00 +21°C° 0 mm 1 mps 748 mmHg 21%
    13:00 +23°C° 0 mm 2 mps 747 mmHg 21%
    14:00 +23°C° 0 mm 2 mps 747 mmHg 21%
    15:00 +23°C° 0 mm 2 mps 746 mmHg 22%
    16:00 +24°C° 0 mm 2 mps 746 mmHg 22%
    17:00 +22°C° 0 mm 1 mps 746 mmHg 27%
    18:00 +20°C° 0 mm 1 mps 746 mmHg 33%
    19:00 +18°C° 0 mm 1 mps 746 mmHg 38%
    20:00 +16°C° 0 mm 1 mps 746 mmHg 39%
    21:00 +15°C° 0 mm 1 mps 746 mmHg 41%
    22:00 +15°C° 0 mm 1 mps 747 mmHg 42%
    23:00 +14°C° 0 mm 1 mps 746 mmHg 44%

    25 March, Monday

    Time Temperature Precipitation Wind Pressure Humidity
    00:00 +14°C° 0 mm 1 mps 746 mmHg 45%
    01:00 +13°C° 0 mm 1 mps 746 mmHg 46%
    02:00 +13°C° 0 mm 1 mps 746 mmHg 47%
    03:00 +12°C° 0 mm 1 mps 746 mmHg 48%
    04:00 +12°C° 0 mm 1 mps 746 mmHg 50%
    05:00 +12°C° 0 mm 1 mps 746 mmHg 50%
    06:00 +12°C° 0 mm 1 mps 746 mmHg 51%
    07:00 +12°C° 0 mm 1 mps 746 mmHg 52%
    08:00 +14°C° 0 mm 1 mps 746 mmHg 48%
    09:00 +16°C° 0 mm 1 mps 746 mmHg 44%
    10:00 +19°C° 0 mm 1 mps 746 mmHg 40%
    11:00 +20°C° 0 mm 1 mps 746 mmHg 39%
    12:00 +21°C° 0 mm 1 mps 745 mmHg 37%
    13:00 +21°C° 0 mm 2 mps 745 mmHg 35%
    14:00 +22°C° 0 mm 1 mps 745 mmHg 35%
    15:00 +22°C° 0 mm 1 mps 744 mmHg 34%
    16:00 +22°C° 0 mm 1 mps 744 mmHg 34%
    17:00 +21°C° 0 mm 1 mps 744 mmHg 38%
    18:00 +19°C° 0 mm 1 mps 744 mmHg 43%
    19:00 +16°C° 0 mm 0 mps 744 mmHg 47%
    20:00 +16°C° 0 mm 1 mps 745 mmHg 48%
    21:00 +15°C° 0 mm 1 mps 746 mmHg 50%
    22:00 +15°C° 0 mm 1 mps 746 mmHg 52%
    23:00 +14°C° 0 mm 1 mps 746 mmHg 53%

    26 March, Tuesday

    Time Temperature Precipitation Wind Pressure Humidity
    00:00 +14°C° 0 mm 2 mps 746 mmHg 54%
    01:00 +14°C° 0 mm 2 mps 746 mmHg 55%
    02:00 +13°C° 0 mm 1 mps 746 mmHg 59%
    03:00 +13°C° 0 mm 1 mps 747 mmHg 63%
    04:00 +12°C° 0 mm 1 mps 747 mmHg 67%
    05:00 +12°C° 0 mm 1 mps 747 mmHg 68%
    06:00 +12°C° 0 mm 1 mps 747 mmHg 69%
    07:00 +11°C° 0 mm 1 mps 747 mmHg 71%
    08:00 +12°C° 0 mm 1 mps 747 mmHg 70%
    09:00 +13°C° 0 mm 1 mps 747 mmHg 70%
    10:00 +13°C° 0 mm 2 mps 747 mmHg 70%
    11:00 +14°C° 0 mm 2 mps 746 mmHg 67%
    12:00 +16°C° 0 mm 2 mps 746 mmHg 64%
    13:00 +17°C° 0 mm 2 mps 746 mmHg 62%
    14:00 +17°C° 0 mm 2 mps 745 mmHg 59%
    15:00 +18°C° 0 mm 2 mps 745 mmHg 57%
    16:00 +18°C° 0 mm 2 mps 745 mmHg 55%
    17:00 +17°C° 0 mm 2 mps 745 mmHg 59%
    18:00 +16°C° 0 mm 1 mps 745 mmHg 63%
    19:00 +14°C° 0 mm 1 mps 745 mmHg 68%
    20:00 +13°C° 0 mm 0 mps 746 mmHg 69%
    21:00 +12°C° 0 mm 0 mps 746 mmHg 70%
    22:00 +12°C° 0 mm 0 mps 747 mmHg 70%
    23:00 +12°C° 0 mm 0 mps 747 mmHg 71%
    Show more